[[{"header":{"parameterUnit":"m.s-1","parameterCategory":1,"la1":30.2991,"la2":30.254,"lo1":-89.0895,"lo2":-89.0444,"dy":0.0017,"dx":0.0017,"nx":28,"ny":28,"refTime":"2024-07-04T09:00:00:Z","depth":0,"parameterNumber":2,"parameterNumberName":"U-component_of_WINDS"},"data":[0,0,0,0,0,0,0,0,0,0,0,0,0,0,0,0,0,0,0,0,0,0,0,0,0,0,0,0,0,0,0,0,0,0,0,0,0,0,0,0,0,0,0,0,0,0,0,0,0,0,0,0,0,0,0,0,0,0,1.5753,1.5755,0,1.5888,1.5889,1.5891,1.5939,1.5938,1.5938,1.5937,1.6073,1.6077,1.6081,0,0,0,0,0,0,0,0,0,0,0,0,0,1.5535,1.5539,1.5753,1.5755,1.5757,1.5888,1.589,1.5891,1.5939,1.5938,1.5937,1.5937,1.6072,1.6076,1.6081,0,0,0,0,0,0,0,0,0,0,0,0,0,1.5645,1.554,1.5753,1.5796,1.5801,1.5887,1.589,1.5892,1.5939,1.5938,1.5937,1.5937,1.607,1.6076,1.6082,1.6134,0,0,1.6101,1.6103,0,0,0,0,0,0,0,0,1.5639,1.5653,1.5788,1.5793,1.5799,1.5896,1.5862,1.5973,1.5939,1.5886,1.5937,1.5936,1.6014,1.6025,1.6052,1.6141,1.6147,1.6101,1.6105,1.6107,1.6109,0,0,0,0,0,0,0,1.5631,1.5648,1.5807,1.579,1.5797,1.5808,1.5823,1.5884,1.5953,1.5891,1.5895,1.591,1.6017,1.6046,1.6055,1.6149,1.6101,1.6106,1.611,1.6113,1.6286,1.6287,0,0,0,0,0,0,1.5617,1.5641,1.5802,1.5811,1.5716,1.5812,1.5829,1.5865,1.5952,1.5965,1.5911,1.5912,1.6036,1.6048,1.606,1.6127,1.6107,1.6113,1.6117,1.6285,1.6286,1.6287,0,0,0,0,0,0,1.5612,1.5631,1.5797,1.5727,1.5749,1.5817,1.5857,1.5868,1.5897,1.5967,1.598,1.5927,1.6036,1.6052,1.6115,1.6132,1.6116,1.6121,1.6284,1.6285,1.6287,1.626,0,0,0,0,0,0,1.5605,1.5629,1.565,1.5727,1.5753,1.585,1.5859,1.5872,1.5908,1.5911,1.5986,1.5998,1.6036,1.6106,1.6122,1.614,1.6126,1.6283,1.6285,1.6286,1.626,1.626,1.6261,0,0,0,0,0,1.5598,1.5637,1.5651,1.567,1.5781,1.5851,1.5866,1.591,1.5909,1.593,1.5975,1.5995,1.6128,1.6112,1.613,1.6151,1.6282,1.6284,1.6286,1.626,1.626,1.6261,0,0,0,0,0,0,1.5559,1.5648,1.5664,1.573,1.5783,1.5859,1.5888,1.5909,1.5963,1.5963,1.6015,1.6032,1.6091,1.6128,1.6109,1.6205,1.6206,1.6212,1.618,1.6181,1.6182,1.6171,1.6131,0,0,0,0,0,1.5559,1.5609,1.5684,1.5734,1.576,1.5819,1.5852,1.5881,1.5937,1.596,1.601,1.6063,1.6117,1.6151,1.6204,1.6265,1.6282,1.6288,1.6289,1.6289,1.6293,1.6327,1.6331,1.6294,1.6294,1.6294,0,0,1.5557,1.5612,1.5641,1.5728,1.5773,1.5823,1.5838,1.5891,1.5928,1.5968,1.6031,1.6069,1.6132,1.6194,1.6224,1.6227,1.6307,1.6292,1.6291,1.6296,1.633,1.6333,1.6336,1.6296,1.6295,1.6295,0,0,1.5581,1.5628,1.5675,1.5719,1.5787,1.5826,1.5837,1.591,1.5937,1.6001,1.6032,1.6077,1.6168,1.6212,1.6246,1.6285,1.6305,1.6301,1.6304,1.6336,1.6339,1.6342,1.6355,1.6359,1.6305,1.6305,1.6305,0,1.5571,1.5649,1.5696,1.5748,1.5785,1.5823,1.5871,1.5911,1.5992,1.6016,1.6017,1.6132,1.6178,1.625,1.626,1.6286,1.63,1.6292,1.6335,1.6338,1.6342,1.6355,1.636,1.6304,1.6304,1.6304,1.6304,0,1.5633,1.5687,1.5717,1.5794,1.5834,1.5883,1.5937,1.5972,1.5998,1.6036,1.61,1.6156,1.6221,1.624,1.6266,1.6316,1.6315,1.6325,1.6327,1.6343,1.6357,1.6362,1.6302,1.6303,1.6303,1.6303,0,0,1.5637,1.5739,1.5749,1.5785,1.5862,1.5903,1.5954,1.6018,1.6046,1.61,1.6143,1.6219,1.6229,1.6267,1.6298,1.6327,1.6353,1.6333,1.6335,1.6334,1.6411,1.6403,1.6408,1.6367,1.6368,1.6369,1.6405,0,1.567,1.5762,1.5806,1.5879,1.5928,1.5965,1.6009,1.606,1.6097,1.6144,1.6184,1.6237,1.6246,1.627,1.63,1.6343,1.6369,1.6341,1.6406,1.6408,1.6389,1.6415,1.6407,1.6438,1.6411,1.6412,1.6413,0,1.5721,1.5776,1.5854,1.5924,1.5946,1.5985,1.6046,1.6091,1.6149,1.6174,1.6217,1.6246,1.6299,1.6297,1.637,1.6351,1.638,1.6405,1.6407,1.6415,1.6411,1.6422,1.645,1.6454,1.6421,1.6421,1.642,0,1.5715,1.5808,1.5866,1.5895,1.5979,1.6005,1.6041,1.6099,1.6134,1.6188,1.6211,1.627,1.6302,1.6346,1.639,1.6384,1.6459,1.646,1.648,1.6479,1.6494,1.6492,1.6525,1.6513,1.6513,1.6513,1.6513,0,1.5747,1.5793,1.5865,1.59,1.5953,1.6002,1.6052,1.609,1.6141,1.6184,1.622,1.6259,1.6315,1.6362,1.6396,1.6451,1.6466,1.6487,1.6495,1.6483,1.648,1.6503,1.6501,1.6514,1.6514,1.6514,1.6514,0,1.5749,1.5799,1.5865,1.5939,1.5958,1.5993,1.6056,1.6092,1.613,1.6184,1.62,1.626,1.6316,1.6365,1.6439,1.6462,1.6519,1.6529,1.6499,1.6504,1.652,1.6518,1.6569,1.6577,1.6559,1.6559,1.656,0,1.5766,1.5802,1.588,1.5912,1.5947,1.5998,1.6035,1.6084,1.612,1.6189,1.6216,1.6275,1.6325,1.6413,1.6462,1.6519,1.6531,1.6545,1.654,1.6526,1.653,1.6528,1.6531,1.6545,1.6545,1.6545,1.6545,0,1.5791,1.5814,1.5865,1.5925,1.5968,1.6017,1.6067,1.6091,1.6149,1.6188,1.6246,1.6285,1.6361,1.6418,1.648,1.6516,1.654,1.6546,1.6553,1.6541,1.6522,1.6532,1.6499,1.6545,1.6545,1.6545,1.6545,1.6545,1.5801,1.5834,1.5894,1.595,1.5993,1.6039,1.6076,1.6119,1.6169,1.6235,1.6261,1.632,1.6377,1.6462,1.6498,1.6545,1.6548,1.6559,1.6562,1.6564,1.6561,1.6515,1.6556,1.6556,1.6556,1.6556,1.6556,0,1.5827,1.5867,1.5918,1.5988,1.6031,1.605,1.6107,1.6142,1.6193,1.6245,1.6293,1.6359,1.6415,1.6469,1.6528,1.6554,1.6567,1.6568,1.6566,1.6574,1.6555,1.6543,1.6557,1.6557,1.6557,1.6557,1.6557,1.6557,1.5845,1.5903,1.5933,1.6012,1.6052,1.6111,1.6141,1.6183,1.6225,1.6297,1.6344,1.6379,1.6431,1.6494,1.6546,1.656,1.658,1.6578,1.6595,1.6576,1.6576,1.6575,1.6563,1.6582,1.6582,1.661,1.661,1.6611]},{"header":{"parameterUnit":"m.s-1","parameterCategory":1,"la1":30.2991,"la2":30.254,"lo1":-89.0895,"lo2":-89.0444,"dy":0.0017,"dx":0.0017,"nx":28,"ny":28,"refTime":"2024-07-04T09:00:00:Z","depth":0,"parameterNumber":3,"parameterNumberName":"V-component_of_WINDS"},"data":[0,0,0,0,0,0,0,0,0,0,0,0,0,0,0,0,0,0,0,0,0,0,0,0,0,0,0,0,0,0,0,0,0,0,0,0,0,0,0,0,0,0,0,0,0,0,0,0,0,0,0,0,0,0,0,0,0,0,4.0213,4.0213,0,4.0189,4.0188,4.0188,4.014,4.0139,4.0138,4.0137,4.0114,4.0114,4.0114,0,0,0,0,0,0,0,0,0,0,0,0,0,4.0219,4.0219,4.0213,4.0213,4.0212,4.0189,4.0188,4.0188,4.014,4.0139,4.0138,4.0137,4.0114,4.0114,4.0114,0,0,0,0,0,0,0,0,0,0,0,0,0,4.0208,4.0219,4.0213,4.0185,4.0183,4.0189,4.0188,4.0188,4.014,4.0139,4.0138,4.0136,4.0114,4.0114,4.0114,4.0146,0,0,4.0116,4.0116,0,0,0,0,0,0,0,0,4.0208,4.0207,4.019,4.0187,4.0184,4.0166,4.0182,4.0174,4.0141,4.0157,4.0137,4.0136,4.0132,4.0131,4.013,4.0144,4.0143,4.0116,4.0116,4.0116,4.0116,0,0,0,0,0,0,0,4.0209,4.0208,4.0203,4.019,4.0186,4.0175,4.0172,4.018,4.0153,4.0155,4.0152,4.0149,4.0131,4.013,4.0129,4.0143,4.0116,4.0116,4.0116,4.0116,4.0182,4.0183,0,0,0,0,0,0,4.0214,4.0209,4.0204,4.0203,4.0193,4.0176,4.0172,4.0173,4.0153,4.0148,4.0151,4.0147,4.013,4.0128,4.0128,4.0163,4.0116,4.0116,4.0117,4.018,4.0182,4.0184,0,0,0,0,0,0,4.0214,4.0214,4.0205,4.0205,4.0203,4.0177,4.0179,4.0174,4.0172,4.0149,4.0144,4.0154,4.0128,4.0127,4.0141,4.0161,4.0117,4.0117,4.0179,4.0181,4.0183,4.0233,0,0,0,0,0,0,4.0214,4.0214,4.0225,4.0205,4.0203,4.0219,4.018,4.0174,4.0173,4.0168,4.0151,4.0147,4.0127,4.0141,4.0142,4.0161,4.0117,4.0177,4.018,4.0182,4.0229,4.0237,4.0243,0,0,0,0,0,4.0215,4.0241,4.0226,4.0226,4.0217,4.022,4.0219,4.0195,4.0175,4.0186,4.0171,4.0148,4.0159,4.0143,4.0143,4.0163,4.0175,4.0179,4.0182,4.0226,4.0235,4.0243,0,0,0,0,0,0,4.0264,4.0238,4.0221,4.0241,4.0233,4.0212,4.0225,4.0205,4.0202,4.0198,4.0169,4.0166,4.0184,4.0175,4.0157,4.0192,4.0163,4.0167,4.0197,4.0205,4.0212,4.0213,4.0118,0,0,0,0,0,4.0277,4.0282,4.0259,4.0279,4.0275,4.0251,4.0252,4.0234,4.0225,4.0221,4.0207,4.0199,4.0201,4.0202,4.0203,4.0228,4.0224,4.0242,4.0248,4.0254,4.0257,4.027,4.0278,4.0195,4.0195,4.0195,0,0,4.0304,4.0291,4.0295,4.0288,4.028,4.0285,4.0249,4.0256,4.026,4.0222,4.0234,4.0224,4.0213,4.0233,4.0241,4.0226,4.0279,4.0258,4.0263,4.0263,4.0274,4.0282,4.0289,4.0197,4.0197,4.0196,0,0,4.0357,4.0347,4.0363,4.0355,4.0342,4.0326,4.033,4.0312,4.0303,4.0315,4.0287,4.0291,4.0295,4.0288,4.0285,4.0336,4.0314,4.0337,4.0371,4.0384,4.039,4.0396,4.0414,4.0421,4.034,4.034,4.034,0,4.0393,4.04,4.0373,4.0383,4.038,4.0346,4.0362,4.0355,4.0344,4.0344,4.0327,4.0331,4.0321,4.0338,4.0351,4.035,4.0353,4.0338,4.0392,4.0397,4.0402,4.0418,4.0425,4.0343,4.0343,4.0342,4.0342,0,4.0444,4.0449,4.0463,4.0453,4.0452,4.0465,4.0441,4.0443,4.0426,4.0411,4.0424,4.0411,4.0408,4.0411,4.0394,4.0426,4.0417,4.0397,4.0368,4.0413,4.0428,4.0434,4.0347,4.0346,4.0345,4.0344,0,0,4.0527,4.0501,4.0507,4.0501,4.0485,4.0489,4.05,4.0497,4.05,4.0493,4.0502,4.0506,4.0486,4.0483,4.0465,4.0476,4.0517,4.0454,4.0454,4.0466,4.0551,4.0567,4.0575,4.0502,4.0504,4.0504,4.0552,0,4.0575,4.0592,4.0569,4.0591,4.0596,4.0564,4.0573,4.0565,4.0552,4.0554,4.054,4.0543,4.0517,4.0515,4.0525,4.051,4.0534,4.0506,4.051,4.0511,4.0514,4.0582,4.0599,4.0644,4.0558,4.0559,4.056,0,4.0634,4.063,4.0653,4.0635,4.0636,4.0646,4.0641,4.0643,4.0633,4.0623,4.0619,4.0598,4.0608,4.058,4.0593,4.0575,4.0575,4.0568,4.057,4.0569,4.0538,4.0583,4.0658,4.0665,4.0569,4.0568,4.0567,0,4.0692,4.0692,4.0706,4.0702,4.0682,4.0689,4.0681,4.067,4.0669,4.0665,4.0664,4.0662,4.066,4.0659,4.0637,4.0619,4.0653,4.0623,4.0645,4.0646,4.0654,4.0653,4.073,4.0655,4.0654,4.0654,4.0654,0,4.0749,4.0764,4.0731,4.074,4.0756,4.0729,4.0746,4.0735,4.0725,4.073,4.0702,4.0709,4.068,4.0683,4.0666,4.068,4.0679,4.0672,4.0667,4.0674,4.0675,4.0674,4.067,4.0656,4.0656,4.0655,4.0655,0,4.0816,4.0795,4.0807,4.0787,4.0782,4.0795,4.0778,4.0785,4.077,4.0778,4.0778,4.0755,4.0758,4.0736,4.0734,4.0723,4.0744,4.0734,4.0748,4.0744,4.0767,4.0765,4.0845,4.0854,4.0774,4.0774,4.0775,0,4.0853,4.0864,4.0845,4.0847,4.084,4.0843,4.0843,4.0817,4.0817,4.0806,4.0815,4.0815,4.0813,4.0818,4.0802,4.08,4.079,4.0818,4.0789,4.0796,4.079,4.0789,4.079,4.0824,4.0825,4.0825,4.0826,0,4.0922,4.0911,4.0911,4.0907,4.0907,4.0903,4.0897,4.09,4.0872,4.0874,4.0876,4.0874,4.0872,4.0873,4.0868,4.086,4.0839,4.0835,4.084,4.0847,4.0854,4.0851,4.0764,4.0833,4.0833,4.0832,4.0832,4.0831,4.0975,4.0983,4.0971,4.0972,4.0965,4.096,4.0965,4.0951,4.0952,4.0948,4.0933,4.0937,4.0927,4.0918,4.0912,4.0915,4.0902,4.0909,4.0911,4.0913,4.0917,4.0854,4.0915,4.0914,4.0914,4.0914,4.0914,0,4.1042,4.1033,4.1034,4.1026,4.1027,4.1006,4.0999,4.1001,4.1005,4.0997,4.0996,4.0998,4.0998,4.0981,4.0979,4.0985,4.0975,4.0985,4.0984,4.0983,4.0929,4.0925,4.0993,4.0993,4.0993,4.0993,4.0993,4.0993,4.1077,4.109,4.1077,4.1086,4.1076,4.108,4.1078,4.1073,4.1066,4.107,4.107,4.1059,4.1047,4.1044,4.1043,4.1038,4.1039,4.1052,4.1044,4.0994,4.0987,4.0979,4.0975,4.1053,4.1053,4.1097,4.1098,4.1098]}]]